Location: Starry Hill Observatory
(46.8582°N, 122.3590°W)
Time: 00:02:17
(UTC-07:00)

ISS - Visible Passes

Search period start: 24 October 2014 00:00
Search period end: 02 November 2014 23:00
Orbit: 413 x 416 km, 51.6° (Epoch: 24 October)

Date Brightness Start Highest point End Pass type
(mag) Time Alt. Az. Time Alt. Az. Time Alt. Az.
24 Oct -1.8 19:45:12 10° WNW 19:48:15 33° SW 19:49:50 21° SSE visible
25 Oct -2.5 18:55:53 10° WNW 18:59:09 53° SSW 19:02:24 10° SE visible
26 Oct -0.4 19:44:14 10° W 19:46:12 15° SW 19:48:10 10° S visible
27 Oct -0.9 18:54:23 10° W 18:57:07 24° SW 18:59:50 10° SSE visible
29 Oct 0.3 18:54:22 10° SW 18:54:44 10° SW 18:55:06 10° SW visible
